Warning: Javascript must be enabled to use all the features on this page!


Page Loading - Please Wait...

Click to hideNews Bulletins

Peak Streamflow for the Nation

USGS 10327500 HUMBOLDT RV AT COMUS, NV

Humboldt County, Nevada
Hydrologic Unit Code 16040105
Latitude  40°59'32", Longitude 117°19'00" NAD27
Drainage area 12,220  square miles
Gage datum 4,363.3 feet above NAVD88
Output formats
Table
Graph
Tab-separated file
peakfq (watstore) format
Reselect output format
Water
Year
Date Gage
Height
(feet)
Stream-
flow
(cfs)
1895 1895-04-05   1,0401,5
1896 1896-06-30   1,6101,5
1897 1897-05-03   3,1001,5
1898 1898-03-15   4851,5
1899 1899-05-04   2,2301,5
1900 1900-06-15   4641,5
1901 1901-03-08   3,0802,5
1902 1902-06-23   5231,5
1903 1903-06-27   7401,5
1904 1904-04-16   1,0601,5
1905 1905-05-30   3561,5
1906 1906-04-25   1,4201,5
1907 1907-04-08   3,1601,5
1908 1908-07-02   8801,5
1909 1909-06-19   9001,5
1911 1911-04-01   7991,5
1912 1912-06-30   1,2401,5
1913 1913-06-26   6801,5
1914 1914-03-30   1,7301,5
1915 1915-04-06   3521,5
1916 1916-04-23   1,3201,5
1917 1917-05-31   1,9501,5
1918 1918-04-04   3121,5
1919 1919-04-10   1,2501,5
1920 1920-06-22   2341,5
1921 1921-06-24   3,8801,5
1922 1922-05-17   2,9701,5
1923 1923-06-22   9101,5
1924 1924-03-01   2001,5
1925 1925-06-18   1,1801,5
1926 1926-03-20   3541,5
1946 1946-05-03 7.096 1,4005
1947 1947-02-15 3.10 5355
1948 1948-06-17 5.78 7485
1949 1949-06-03 6.83 9525
1950 1950-06-19 6.55 8895
1951 1951-02-21 7.15 1,0305
1952 1952-05-06 11.52 5,8605
1953 1953-06-24 6.03 6425
1954 1954-03-30 3.77 2685
1955 1955-06-25 3.60 2435
1956 1956-06-10 8.10 1,2005
1957 1957-06-24 9.21 1,5405
1958 1958-06-12 8.39 1,2705
1959 1959-01-12 3.24 1705
1960 1960-04-30 4.27 3575
1961 1961-06-21 4.32 3725
1962 1962-02-21 9.91 1,7405
1963 1963-07-03 9.39 1,5305
1964 1964-06-21 8.84 1,4405
1965 1965-06-26 8.88 1,5005
1966 1966-03-24 5.66 6695
1967 1967-07-07 7.81 1,2305
1968 1968-06-18 5.69 7115
1969 1969-04-18 10.64 3,9105
1970 1970-06-23 8.41 1,3705
1971 1971-06-03 10.56 3,2605
1972 1972-03-26 7.88 1,2105
1973 1973-06-05 8.78 1,5705
1974 1974-04-12 6.80 1,0005
1975 1975-05-27 10.79 3,2205
1976 1976-03-06 5.69 7685
1977 1977-06-13 4.66 5755
1978 1978-05-09 7.20 1,0505
1979 1979-03-19 8.13 1,2405
1980 1980-06-15 10.73 2,9305
1981 1981-06-18 4.02 3055
1982 1982-04-23 9.42 1,7105
1983 1983-06-14 11.76 5,2105
1984 1984-04-24 12.25 9,9005
1985 1985-04-15 9.47 1,7905
1986 1986-02-28 10.52 3,0905
1987 1987-06-02 5.57 6005
1988 1988-03-04 5.43 5375
1989 1989-04-03 7.86 1,6005
1990 1990-06-16 5.30 5925
1991 1991-06-25 6.08 7655
1992 1992-03-10 3.67 2455
1993 1993-04-03 10.39 2,7005
1994 1994-06-09 5.61 7505
1995 1995-06-18 10.87 3,2105
1996 1996-05-31 9.25 1,9205
1997 1997-06-21 10.20 2,9505
1998 1998-05-28 11.626 3,1105
1999 1999-06-13 9.54 1,8005
2000 2000-06-07 5.466 6895
2001 2001-05-26 4.42 3955
2002 2002-06-11 6.28 9075
2003 2003-06-13 5.83 7615
2004 2004-03-25 5.46 6595
2005 2005-05-28 11.44 4,7105
2006 2006-04-16 11.78 6,0705
2007 2007-05-22 4.83 4695
2008 2008-06-13 5.65 7115
2009 2009-06-29 6.32 8665
2010 2010-06-20 7.50 1,3705
2011 2011-07-03 10.14 2,0805
2012 2012-03-28 4.34 3635
2013 2013-03-28 3.532 2075
2014 2014-06-08 4.24 3495
2015 2015-06-17 4.86 4765
2016 2016-05-27 7.95 1,1805
2017 2017-03-31 11.29 4,9605
2018 2018-04-15 5.692 5865
2019 2019-06-15 11.17 3,2305
2020 2020-06-06 4.612 3645
?
  Peak Gage-Height Qualification Codes.
?
  Peak Streamflow Qualification Codes.